Location: Most
(50.5330°N, 13.6500°E)
Time: 07:18:41
(UTC+02:00)

STARS - Visible Passes

Search period start: 26 June 2022 00:00
Search period end: 06 July 2022 00:00
Orbit: 622 x 636 km, 98.2° (Epoch: 25 June)

Date Brightness Start Highest point End Pass type
(mag) Time Alt. Az. Time Alt. Az. Time Alt. Az.
26 Jun ? 00:12:13 10° N 00:16:38 72° WNW 00:19:40 19° SSW visible
26 Jun ? 01:50:35 10° NNW 01:52:06 12° NW 01:53:37 10° WNW visible
26 Jun ? 22:56:41 10° NE 23:00:10 23° E 23:02:37 15° SE visible
27 Jun ? 00:32:27 10° N 00:36:40 47° WNW 00:39:59 15° SW visible
27 Jun ? 23:16:25 10° NNE 23:20:25 34° E 23:22:56 19° SSE visible
28 Jun ? 00:52:46 10° N 00:56:39 31° WNW 01:00:17 11° SW visible
28 Jun ? 23:36:19 10° NNE 23:40:38 52° E 23:43:14 22° S visible
29 Jun ? 01:13:13 10° N 01:16:35 22° WNW 01:19:56 10° WSW visible
29 Jun ? 22:22:59 10° ENE 22:23:45 10° E 22:24:31 10° E visible
29 Jun ? 23:56:21 10° NNE 00:00:46 81° ESE 00:03:33 22° S visible
30 Jun ? 01:33:52 10° NNW 01:36:28 16° WNW 01:39:02 10° W visible
30 Jun ? 22:41:22 10° NE 22:44:07 16° E 22:46:30 11° SE visible
01 Jul ? 00:16:29 10° N 00:20:51 66° WNW 00:23:51 19° SSW visible
01 Jul ? 01:55:11 10° NW 01:56:17 11° NW 01:57:22 10° WNW visible
01 Jul ? 23:00:50 10° NE 23:04:25 24° E 23:06:48 16° SE visible
02 Jul ? 00:36:43 10° N 00:40:52 43° WNW 00:44:09 15° SW visible
02 Jul ? 23:20:35 10° NNE 23:24:39 36° E 23:27:05 20° SSE visible
03 Jul ? 00:57:02 10° N 01:00:50 29° WNW 01:04:26 11° WSW visible
03 Jul ? 23:40:30 10° NNE 23:44:50 56° E 23:47:23 23° S visible
04 Jul ? 01:17:30 10° NNW 01:20:45 21° WNW 01:23:58 10° WSW visible
04 Jul ? 22:26:38 10° ENE 22:28:00 11° E 22:29:22 10° ESE visible
05 Jul ? 00:00:33 10° NNE 00:04:58 87° ESE 00:07:40 23° SSW visible
05 Jul ? 01:38:13 10° NNW 01:40:36 15° NW 01:42:59 10° W visible
05 Jul ? 22:45:25 10° NE 22:48:20 17° E 22:50:35 12° SE visible
